Reflectivity
23 28 -20 -11 -14 5 4 -10 9 20 3 13 35 32 19 38 28 1 -8 6 24 13
24 3 -6 -0 -1 -20 3 -17 -3 -19 21 30 25 41 35 28 22 4 21 1 14 19
12 -13 -5 -19 -19 4 12 -1 -20 10 -14 -6 22 19 26 17 24 15 19 31 7 -13
2 -17 3 4 -5 -14 6 -20 -20 -20 3 25 16 -0 4 28 6 16 29 18 -12 -12
-1 -18 -18 -10 22 13 7 -14 -20 11 30 25 -16 21 13 -6 -19 20 25 -20 0 -20
-11 17 -9 5 13 -3 14 2 -18 -8 -12 -3 -20 -19 16 9 -2 1 -15 1 -20 -20
6 -7 -10 3 4 -6 -13 6 8 -20 -14 -20 4 11 -13 20 12 3 -11 -20 -17 -20
-20 -20 -20 -20 -20 -16 -19 -20 -20 -20 -20 -20 -12 -1 9 11 -7 -20 -20 -20 -5 -20
-20 -20 -7 -20 -20 -20 -20 -20 -20 -20 -20 -1 11 -0 6 6 -20 -6 -7 -20 -20 -20
-20 -20 -20 -20 -20 -20 -20 -20 -20 -20 -20 -20 -20 -17 -20 -20 -20 -20 -20 -20 -20 -20
-20 -20 -20 -20 -20 -20 -8 -1 -2 -20 -20 -10 -10 -20 -20 -20 -20 -20 -20 -20 -20 -20
-20 -20 -20 -20 -20 -5 -19 -10 -20 -20 -20 -20 -20 -20 -20 -20 -20 -20 -20 -20 -20 -20
-20 -20 -20 -20 -20 -20 -20 -20 -20 -20 -20 -20 -20 -20 -20 -20 -20 -20 -20 -20 -20 -20
-20 -20 -20 -20 -20 -20 -20 -20 -20 -20 -20 -20 -20 -20 -20 -20 -20 -20 -20 -20 -20 -20
Wind_Speed
16 11 9 11 9 8 7 6 9 6 7 6 4 5 7 4 5 5 3 3 2 3
16 14 10 11 6 5 5 6 10 10 10 7 9 6 6 5 4 4 3 0 3 5
11 9 8 6 5 6 5 7 9 10 10 8 8 8 9 5 5 4 3 3 6 9
6 10 11 6 6 7 8 9 10 8 8 9 8 8 6 7 4 4 5 7 10 14
5 5 6 5 5 6 6 6 8 10 8 10 10 9 9 8 7 6 8 12 12 11
9 8 8 7 7 6 6 6 7 9 9 9 9 8 6 6 7 9 11 12 11 10
9 9 8 8 8 7 7 8 7 8 8 8 8 8 7 6 7 8 7 10 11 11
9 10 11 11 10 9 8 9 10 9 9 7 6 5 5 6 4 7 11 12 14 14
12 12 11 12 12 11 13 11 11 8 6 4 3 6 5 5 8 12 12 13 14 15
13 13 12 12 11 10 10 9 8 5 4 3 5 9 9 5 9 11 13 15 14 15
13 12 12 10 9 8 6 5 4 4 5 7 4 7 4 2 9 12 14 15 16 16
12 11 10 8 6 4 4 5 4 2 2 3 4 9 10 9 10 12 14 15 17 18
9 8 8 6 6 4 4 3 2 3 4 4 5 14 12 11 8 11 10 13 16 17
9 7 7 6 5 4 4 3 4 3 5 5 6 6 11 12 9 9 11 11 12 12
Wind_Direction
232 234 227 231 226 217 209 187 177 169 180 186 78 97 93 135 194 137 140 139 241 260
222 225 222 231 218 196 191 177 192 177 171 128 118 149 172 135 145 126 154 257 40 267
208 204 216 210 193 187 198 177 178 158 152 138 151 177 145 134 129 103 121 195 239 255
190 201 207 189 190 179 161 176 182 166 146 153 140 132 121 128 129 158 206 234 252 256
156 103 103 102 102 117 151 156 166 162 157 139 141 144 151 150 161 192 232 252 252 256
94 92 98 104 103 105 124 140 138 125 132 142 152 137 146 171 181 224 247 261 269 270
101 106 109 108 112 119 126 120 127 125 133 129 134 155 171 202 233 256 279 292 281 273
120 125 125 123 118 114 114 119 129 130 134 144 152 171 192 219 254 284 271 262 259 264
123 120 121 115 116 122 119 121 128 129 125 127 174 173 196 252 276 274 280 288 285 284
118 115 120 120 111 108 112 127 123 134 152 184 231 213 232 250 281 290 287 286 287 286
119 115 107 112 117 122 125 136 143 179 213 230 241 155 166 15 299 288 288 290 291 289
114 127 130 124 119 120 153 171 171 95 357 318 333 89 52 349 319 308 306 305 301 302
125 117 116 127 119 108 93 89 31 13 357 43 307 81 52 16 334 318 314 310 309 308
123 119 115 113 109 102 84 43 46 0 352 339 22 8 41 26 344 334 327 312 307 302